Appleton, MN

4:57 PM CST on January 22, 2018 (GMT -0600)
Appleton Municipal

Weather History for KAQP - December, 2012

Change the Weather History Date:

Thursday, December 13, 2012

  Actual Average Record
Temperature  
Mean Temperature 14 °F -  
Max Temperature 23 °F 27 °F 50 °F (2002)
Min Temperature 6 °F 11 °F -11 °F (2010)
Degree Days  
Heating Degree Days 50    
Moisture  
Dew Point 12 °F    
Average Humidity 87    
Maximum Humidity 93    
Minimum Humidity 74    
Precipitation  
Precipitation 0.00 in - - ()
Sea Level Pressure  
Sea Level Pressure 30.02 in    
Wind  
Wind Speed 8 mph (NNW)    
Max Wind Speed 15 mph    
Max Gust Speed -    
Visibility 9 miles    
Events Snow    
Averages and records for this station are not official NWS values.
T = Trace of Precipitation, MM = Missing Value Source: NWS Daily Summary

Daily Weather History Graph

Daily Weather History Graph

Search for Another Location

Airport or City:

Trip Planner

Search our weather history database for the weather conditions in past years. The results will help you decide how hot, cold, wet, or windy it might be!

Date:

Astronomy

Dec. 13, 2012 Rise Set
Actual Time 7:55 AM CST 4:41 PM CST
Civil Twilight 7:21 AM CST 5:15 PM CST
Nautical Twilight 6:43 AM CST 5:53 PM CST
Astronomical Twilight 6:07 AM CST 6:28 PM CST
Moon 8:03 AM CST (12/13) 5:26 PM CST (12/13)
Length of Visible Light 9h 54m
Length of Day
8h 46m
New Moon, 0% of the Moon is Illuminated
Dec 13
New Moon
Dec 19
First Quarter
Dec 28
Full
Jan 4
Last Quarter
Jan 11
New

Hourly Weather History & Observations

Time (CST) Temp. Windchill Dew Point Humidity Pressure Visibility Wind Dir Wind Speed Gust Speed Precip Events Conditions
12:13 AM 23.0 °F 15.8 °F 21.2 °F 93% 29.88 in 10.0 mi North 5.8 mph - N/A   Overcast
12:33 AM 23.0 °F 17.0 °F 21.2 °F 93% 29.87 in 10.0 mi NNW 4.6 mph - N/A   Overcast
12:53 AM 23.0 °F 14.7 °F 19.4 °F 86% 29.87 in 10.0 mi NNW 6.9 mph - N/A   Scattered Clouds
1:13 AM 21.2 °F 12.6 °F 17.6 °F 86% 29.88 in 10.0 mi NNW 6.9 mph - N/A   Clear
1:54 AM 17.6 °F 7.3 °F 15.8 °F 93% 29.88 in 7.0 mi NNW 8.1 mph - N/A   Clear
2:13 AM 15.8 °F 6.1 °F 14.0 °F 93% 29.88 in 7.0 mi NNW 6.9 mph - N/A   Clear
2:33 AM 17.6 °F 5.0 °F 15.8 °F 93% 29.88 in 7.0 mi North 11.5 mph - N/A   Clear
2:54 AM 17.6 °F 6.4 °F 14.0 °F 86% 29.89 in 10.0 mi NNW 9.2 mph - N/A   Clear
3:13 AM 15.8 °F 4.2 °F 12.2 °F 86% 29.90 in 10.0 mi NNW 9.2 mph - N/A   Clear
3:33 AM 15.8 °F 5.1 °F 12.2 °F 86% 29.90 in 10.0 mi NNW 8.1 mph - N/A   Clear
3:53 AM 15.8 °F 4.2 °F 12.2 °F 86% 29.91 in 10.0 mi NNW 9.2 mph - N/A   Clear
4:14 AM 15.8 °F 3.4 °F 12.2 °F 86% 29.92 in 10.0 mi NNW 10.4 mph - N/A   Clear
4:33 AM 15.8 °F 1.4 °F 12.2 °F 86% 29.91 in 10.0 mi NNW 13.8 mph - N/A   Clear
4:53 AM 15.8 °F 2.7 °F 12.2 °F 86% 29.92 in 10.0 mi North 11.5 mph - N/A   Clear
5:13 AM 15.8 °F 2.7 °F 12.2 °F 86% 29.93 in 10.0 mi NNW 11.5 mph - N/A   Clear
5:53 AM 15.8 °F 2.7 °F 12.2 °F 86% 29.94 in 10.0 mi North 11.5 mph - N/A   Clear
6:14 AM 14.0 °F -0.2 °F 10.4 °F 86% 29.95 in 10.0 mi NNW 12.7 mph - N/A   Clear
6:33 AM 14.0 °F 0.5 °F 10.4 °F 86% 29.96 in 10.0 mi North 11.5 mph - N/A   Clear
6:53 AM 12.2 °F -0.2 °F 10.4 °F 92% 29.97 in 10.0 mi NNW 9.2 mph - N/A   Clear
7:13 AM 12.2 °F 0.7 °F 10.4 °F 92% 29.98 in 10.0 mi NNW 8.1 mph - N/A   Clear
7:33 AM 12.2 °F -0.2 °F 10.4 °F 92% 29.98 in 10.0 mi NNW 9.2 mph - N/A   Clear
7:53 AM 12.2 °F 1.7 °F 10.4 °F 92% 29.99 in 10.0 mi NNW 6.9 mph - N/A   Clear
8:14 AM 12.2 °F 0.7 °F 10.4 °F 92% 30.00 in 10.0 mi NNW 8.1 mph - N/A   Clear
8:33 AM 12.2 °F 6.1 °F 8.6 °F 85% 30.01 in 10.0 mi NW 3.5 mph - N/A   Clear
8:53 AM 14.0 °F 3.9 °F 10.4 °F 86% 30.02 in 10.0 mi NW 6.9 mph - N/A   Scattered Clouds
9:13 AM 19.4 °F 8.6 °F 15.8 °F 86% 30.03 in 0.8 mi NNW 9.2 mph - N/A Snow Light Snow
9:53 AM 19.4 °F 7.9 °F 15.8 °F 86% 30.04 in 10.0 mi NNW 10.4 mph - N/A   Overcast
10:13 AM 19.4 °F 8.6 °F 15.8 °F 86% 30.05 in 10.0 mi NW 9.2 mph - N/A   Overcast
10:33 AM 19.4 °F 7.9 °F 17.6 °F 93% 30.06 in 10.0 mi NW 10.4 mph - N/A   Overcast
10:53 AM 19.4 °F 6.6 °F 15.8 °F 86% 30.06 in 10.0 mi NNW 12.7 mph - N/A   Overcast
11:13 AM 19.4 °F 5.5 °F 15.8 °F 86% 30.07 in 10.0 mi NW 15.0 mph - N/A   Overcast
11:34 AM 19.4 °F 6.0 °F 14.0 °F 80% 30.08 in 10.0 mi NW 13.8 mph - N/A   Overcast
11:54 AM 17.6 °F 5.7 °F 12.2 °F 79% 30.07 in 10.0 mi NNW 10.4 mph - N/A   Scattered Clouds
12:13 PM 19.4 °F 7.9 °F 12.2 °F 74% 30.08 in 10.0 mi NW 10.4 mph - N/A   Clear
12:33 PM 19.4 °F 8.6 °F 14.0 °F 80% 30.07 in 10.0 mi NNW 9.2 mph - N/A   Clear
12:53 PM 19.4 °F 7.2 °F 14.0 °F 80% 30.08 in 10.0 mi NW 11.5 mph - N/A   Clear
1:13 PM 19.4 °F 6.0 °F 14.0 °F 80% 30.09 in 10.0 mi NW 13.8 mph - N/A   Clear
1:33 PM 19.4 °F 7.9 °F 14.0 °F 80% 30.08 in 10.0 mi NW 10.4 mph - N/A   Clear
1:53 PM 19.4 °F 8.6 °F 15.8 °F 86% 30.08 in 10.0 mi NW 9.2 mph - N/A   Clear
2:13 PM 19.4 °F 7.9 °F 15.8 °F 86% 30.08 in 1.0 mi NW 10.4 mph - N/A Snow Light Snow
2:33 PM 19.4 °F 7.9 °F 15.8 °F 86% 30.07 in 1.0 mi NNW 10.4 mph - N/A   Haze
2:54 PM 19.4 °F 9.5 °F 15.8 °F 86% 30.06 in 5.0 mi NNW 8.1 mph - N/A   Haze
3:14 PM 19.4 °F - 14.0 °F 80% 30.07 in 10.0 mi Calm Calm - N/A   Clear
3:33 PM 17.6 °F - 12.2 °F 79% 30.07 in 10.0 mi Calm Calm - N/A   Clear
3:54 PM 17.6 °F 9.3 °F 14.0 °F 86% 30.07 in 7.0 mi NW 5.8 mph - N/A   Clear
4:13 PM 17.6 °F 12.3 °F 12.2 °F 79% 30.08 in 10.0 mi NW 3.5 mph - N/A   Clear
5:33 PM 8.6 °F 0.1 °F 6.8 °F 92% 30.10 in 10.0 mi West 4.6 mph - N/A   Clear
5:54 PM 8.6 °F 0.1 °F 6.8 °F 92% 30.10 in 10.0 mi West 4.6 mph - N/A   Clear
6:53 PM 8.6 °F 2.0 °F 6.8 °F 92% 30.11 in 7.0 mi NW 3.5 mph - N/A   Clear
7:13 PM 6.8 °F -0.1 °F 3.2 °F 85% 30.10 in 7.0 mi NW 3.5 mph - N/A   Clear
7:53 PM 6.8 °F -0.1 °F 5.0 °F 92% 30.11 in 10.0 mi NW 3.5 mph - N/A   Clear
8:13 PM 8.6 °F - 6.8 °F 92% 30.11 in 7.0 mi Calm Calm - N/A   Clear
8:33 PM 8.6 °F 2.0 °F 5.0 °F 85% 30.11 in 7.0 mi North 3.5 mph - N/A   Clear
8:53 PM 6.8 °F -0.1 °F 1.4 °F 79% 30.11 in 10.0 mi NNE 3.5 mph - N/A   Clear
9:13 PM 6.8 °F - 3.2 °F 85% 30.12 in 10.0 mi Calm Calm - N/A   Clear
9:33 PM 8.6 °F 2.0 °F 5.0 °F 85% 30.11 in 10.0 mi NNE 3.5 mph - N/A   Clear
9:53 PM 8.6 °F - 6.8 °F 92% 30.11 in 7.0 mi Calm Calm - N/A   Clear
10:14 PM 8.6 °F - 5.0 °F 85% 30.10 in 7.0 mi Calm Calm - N/A   Clear
10:33 PM 8.6 °F - 5.0 °F 85% 30.11 in 5.0 mi Calm Calm - N/A   Clear
10:53 PM 6.8 °F - 5.0 °F 92% 30.11 in 4.0 mi Calm Calm - N/A   Clear
11:13 PM 8.6 °F - 6.8 °F 92% 30.11 in 5.0 mi Calm Calm - N/A   Clear
11:53 PM 6.8 °F - 3.2 °F 85% 30.11 in 10.0 mi Calm Calm - N/A   Clear